Location: Zagreb
(45.8000°N, 16.0000°E)
Time: 16:26:27
(UTC+02:00)

Tiangong - Pass Details

Date: 30 January 2022
Orbit: 386 x 389 km, 41.5° (Epoch: 22 May)

Event Time Altitude Azimuth Distance (km) Brightness Sun altitude
Rises 19:23:49 0° 259° (WSW) 2,352 6.3 -25.3°
Reaches altitude 10° 19:26:00 10° 251° (WSW) 1,491 4.9 -25.7°
Enters shadow 19:27:35 23° 236° (SW) 929 3.5 -26.0°
